User: anonymous   Login
Location: Northcutt
(34.7304°N, 84.4305°W)
Time: 20:55:38
(UTC+00:00)
Language:

Vanguard 2 Rocket - Orbit

View from above orbital plane
View from above orbital plane
View from above satellite
View from above satellite

Ground track
Ground track

The orbit data is extracted from the following two-line orbital elements,

1 00012U 59001B   22273.44865071  .00000239  00000-0  13525-3 0  9992
2 00012  32.9002 308.7594 1664990 147.0113 224.6352 11.44697493375657
Epoch (UTC): 30 September 2022 10:46:03
Eccentricity: 0.1664990
inclination: 32.9002°
perigee height: 553 km
apogee height: 3323 km
right ascension of ascending node: 308.7594°
argument of perigee: 147.0113°
revolutions per day: 11.44697493
mean anomaly at epoch: 224.6352°
orbit number at epoch: 37565

The dashed part of the orbit path shows where the satellite is in the earth's shadow,  

DLR